COSMOS 2251 DEB

Satellite information

Favourite Embed

Satellite Type and Status

DEBRISIN ORBIT

Key statistics

Satellite COSMOS 2251 DEB at a glance.

Uptime

11708

Days in orbit

Revolutions

≈ 14.0

Per day

Orbit

LEO

Low Earth Orbit

Inclination

73.9

Latest

Satellite identification and parameters

Extended collection of information and parameters for COSMOS 2251 DEB.

Object identification

Identified? True

Debris? True

Object name: COSMOS 2251 DEB

International designator: 1993-036YP

Object number (NORAD): 34721

Object ID (CCSDS): 34721

Country: COMMONWEALTH OF INDEPENDENT STATES (CIS)

Current information (Y/N): Y

RCS size: SMALL

Orbital parameters

Period: 103.146 minutes

Inclination: 73.9219 deg

SMA: 7285.536 km

Apoapsis: 1067.754 km

Periapsis: 747.048 km

RAAN: 244.6036 deg

Eccentricy: 0.0220098

Argument of periapsis: 216.2524 deg

Mean anomaly: 173.9998 deg

Mean motion: 13.96080648 rev/day

Mean motion (dot): 0.00001376 rev/day2

B* drag term: 0.00083334 1/REarth

Two-line elements (TLE)

Creation date: July 5, 2025, 5:45 p.m.

Reference frame: TEME

Reference center: EARTH

Epoch: July 5, 2025, 4 a.m. UTC

TLE line 0: 0 COSMOS 2251 DEB

TLE line 1: 1 34721U 93036YP 25186.16702170 .00001376 00000-0 83334-3 0 9995

TLE line 2: 2 34721 73.9219 244.6036 0220098 216.2524 173.9998 13.96080648829086

Live tracking on map

Real-time ground track for satellite COSMOS 2251 DEB.

In-orbit conjunctions

A list of the most updated potential collisions computed for object COSMOS 2251 DEB.

Target Orbit TCA Probability of collision Miss distance Type
SL-16 R/B LEO 2025-03-29 23:27:53 0.0001025334 64.0 (m) ROCKET BODY
NOAA 16 DEB SSO 2024-11-09 13:13:04 0.0002085307 331.0 (m) DEBRIS

Associated space launch

Military communications satellite. Destroyed in a collision with Iridium 33.

COSMOS 2251 DEB was lifted into orbit during the mission ‘Kosmos-3M | Strela-2M 51’, on board a Kosmos-3M space rocket.

The launch took place on June 16, 1993, 4:17 a.m. from 132/1 (132L).

For more information about the launch, click the button.

Launch to space Kosmos-3M | Strela-2M 51
Kosmos-3M | Strela-2M 51

Agency: N/A

Status: Launch Successful

Launch date: June 16, 1993, 4:17 a.m. UTC

Rocket: Kosmos-3M

Launch pad: 132/1 (132L)

Location: Plesetsk Cosmodrome, Russian Federation

...

Latest news about this satellite

There are no fresh news available about this satellite. Check back as we update our databases every day.


Newsletter sign-up

Weekly statistics, charts and insights to help you stay on top of the space industry.